564  
ASUS43 KLSX 171557  
RWRMO  
 
WEATHER SUMMARY FOR MISSOURI  
NATIONAL WEATHER SERVICE SPRINGFIELD MO  
1100 AM CDT WED JUL 17 2024  
 
NOTE: "FAIR" INDICATES FEW OR NO CLOUDS BELOW 12,000 FEET WITH NO  
SIGNIFICANT WEATHER AND/OR S TO VISIBILITY
.  
CURRENT SKY AND/OR WEATHER CONDITIONS ARE NOT AVAILABLE FOR  
CHILLICOTHE AND FARMINGTON.  
 
MOZ001>031-035>038-043-044-053-054-171700-   
..NORTHERN AND WESTERN MISSOURI
 
 
 
CITY SKY/WX TMP DP RH WIND PRES REMARKS
 
KANSAS CTY INT PTSUNNY 80 66 62 N6 30.10S  
LEE'S SUMMIT MOSUNNY 79 66 64 E8 30.09  
ST JOSEPH SUNNY 81 68 64 VRB3 30.10S  
CHILLICOTHE N/A 80 64 58 N6 30.10R  
 

 
MOZ066>068-077>081-088>096-101>105-171700-   
..SOUTHWEST MISSOURI
 
 
 
CITY SKY/WX TMP DP RH WIND PRES REMARKS
 
SPRINGFIELD CLOUDY 72 69 90 CALM 30.02R  
JOPLIN CLOUDY 76 69 79 VRB3 30.03R  
BRANSON CLOUDY 68 68 100 SE9 30.05F  
 

 
MOZ032>034-039>042-045>050-055>058-069>072-171700-   
..CENTRAL MISSOURI
 
 
 
CITY SKY/WX TMP DP RH WIND PRES REMARKS
 
COLUMBIA NOT AVBL  
JEFFERSON CITY MOSUNNY 82 66 58 N5 30.03S  
ROLLA CLOUDY 75 72 88 N6 30.05R  
SEDALIA MOSUNNY 80 67 64 NE9 30.06S  
WARRENSBURG MOSUNNY 77 68 73 N5 30.06F  
OSAGE BEACH CLOUDY 73 73 100 N7 30.04S  
 

 
MOZ051-052-059>065-171700-   
..EAST CENTRAL MISSOURI
 
 
 
CITY SKY/WX TMP DP RH WIND PRES REMARKS
 
ST LOUIS INTL MOSUNNY 83 69 62 N7 30.01R  
 

 
MOZ072>076-082>087-097>100-106>115-171700-   
..SOUTH CENTRAL AND SOUTHEAST MISSOURI
 
 
 
CITY SKY/WX TMP DP RH WIND PRES REMARKS
 
CAPE GIRARDEAU RAIN 78 75 90 SW12 30.00R FOG  
FARMINGTON CLOUDY 79 72 78 CALM 30.03R  
POPLAR BLUFF CLOUDY 74 71 91 SW9 30.03R  
WEST PLAINS LGT RAIN 71 68 90 SW3 30.07F  
 

 
 
 
CLICK HERE TO GO TO PREVIOUS BULLETINS.

The Nexlab MO Page Main Text Page